Weather History for Houston Hull, TX

Change the Weather History Date:

Saturday, January 4, 2014

  Actual Average Record
Temperature  
Mean Temperature 55 °F -  
Max Temperature 68 °F 60 °F 83 °F (1989)
Min Temperature 42 °F 39 °F 22 °F (1947)
Degree Days  
Heating Degree Days 10    
Growing Degree Days 5 (Base 50)    
Moisture  
Dew Point 50 °F    
Average Humidity 75    
Maximum Humidity 86    
Minimum Humidity 59    
Precipitation  
Precipitation 0.00 in - - ()
Sea Level Pressure  
Sea Level Pressure 30.02 in    
Wind  
Wind Speed 10 mph (SSE)    
Max Wind Speed 22 mph    
Max Gust Speed 26 mph    
Visibility 10 miles    
Events      
Averages and records for this station are not official NWS values.
T = Trace of Precipitation, MM = Missing Value Source: NWS Daily Summary

Daily Weather History Graph

Daily Weather History Graph

Search for Another Location

Airport:

Trip Planner

Search our weather history database for the weather conditions in past years. The results will help you decide how hot, cold, wet, or windy it might be!

Date:

Astronomy

Jan. 04, 2014 Rise Set
Actual Time 7:18 AM CST 5:37 PM CST
Civil Twilight 6:52 AM CST 6:03 PM CST
Nautical Twilight 6:22 AM CST 6:32 PM CST
Astronomical Twilight 5:53 AM CST 7:01 PM CST
Moon 9:42 AM CST (1/4) 9:37 PM CST (1/4)
Length of Visible Light 11h 11m
Length of Day
10h 18m
Waxing Crescent, 15% of the Moon is Illuminated
Jan 4
Waxing Crescent
Jan 7
First Quarter
Jan 15
Full
Jan 23
Last Quarter
Jan 30
New

Hourly Weather History & Observations

Time (CST) Temp. Windchill Dew Point Humidity Pressure Visibility Wind Dir Wind Speed Gust Speed Precip Events Conditions
12:53 AM 43.0 °F 37.2 °F 37.9 °F 82% 30.17 in 10.0 mi SE 10.4 mph - N/A   Clear
1:53 AM 43.0 °F 38.8 °F 37.9 °F 82% 30.16 in 10.0 mi SE 6.9 mph - N/A   Clear
2:53 AM 45.0 °F 40.6 °F 39.0 °F 80% 30.14 in 10.0 mi SE 8.1 mph - N/A   Clear
3:53 AM 42.1 °F 37.7 °F 37.9 °F 85% 30.13 in 10.0 mi SE 6.9 mph - N/A   Clear
4:53 AM 45.0 °F 41.2 °F 39.9 °F 82% 30.11 in 10.0 mi SE 6.9 mph - N/A   Clear
5:53 AM 44.1 °F 42.5 °F 39.9 °F 85% 30.11 in 10.0 mi SE 3.5 mph - N/A   Clear
6:53 AM 45.0 °F 41.2 °F 41.0 °F 86% 30.09 in 10.0 mi SE 6.9 mph - N/A   Clear
7:53 AM 46.9 °F - 43.0 °F 86% 30.10 in 10.0 mi SE 5.8 mph - N/A   Clear
8:53 AM 55.0 °F - 48.9 °F 80% 30.10 in 10.0 mi SSE 10.4 mph - N/A   Mostly Cloudy
9:53 AM 61.0 °F - 51.1 °F 70% 30.10 in 10.0 mi SSE 12.7 mph - N/A   Overcast
10:53 AM 66.9 °F - 53.1 °F 61% 30.08 in 10.0 mi South 21.9 mph 26.5 mph N/A   Mostly Cloudy
11:53 AM 66.9 °F - 53.1 °F 61% 30.04 in 10.0 mi South 19.6 mph 24.2 mph N/A   Mostly Cloudy
12:53 PM 68.0 °F - 53.1 °F 59% 30.01 in 10.0 mi South 12.7 mph - N/A   Overcast
1:53 PM 68.0 °F - 54.0 °F 61% 29.97 in 10.0 mi South 15.0 mph - N/A   Overcast
2:53 PM 66.9 °F - 54.0 °F 63% 29.95 in 10.0 mi South 13.8 mph - N/A   Overcast
3:53 PM 66.9 °F - 55.0 °F 66% 29.93 in 10.0 mi SSE 11.5 mph - N/A   Overcast
4:53 PM 66.0 °F - 55.0 °F 68% 29.92 in 10.0 mi SSE 10.4 mph - N/A   Overcast
5:53 PM 64.9 °F - 55.0 °F 70% 29.93 in 10.0 mi South 12.7 mph - N/A   Overcast
6:53 PM 64.0 °F - 55.9 °F 75% 29.93 in 10.0 mi South 11.5 mph - N/A   Overcast
7:53 PM 64.0 °F - 55.9 °F 75% 29.92 in 10.0 mi South 11.5 mph - N/A   Overcast
8:53 PM 64.0 °F - 57.0 °F 78% 29.91 in 10.0 mi South 13.8 mph - N/A   Overcast
9:53 PM 64.9 °F - 57.9 °F 78% 29.91 in 10.0 mi South 13.8 mph - N/A   Overcast
10:53 PM 64.9 °F - 57.9 °F 78% 29.89 in 10.0 mi South 13.8 mph 21.9 mph N/A   Overcast
11:53 PM 66.0 °F - 59.0 °F 78% 29.88 in 10.0 mi South 13.8 mph - N/A   Overcast